Location: München
(48.1351°N, 11.5820°E)
Time: 16:40:13
(UTC+01:00)

ISS - Pass Details

Date: 31 January 2020
Orbit: 415 x 422 km, 51.6° (Epoch: 26 February)

Event Time Altitude Azimuth Distance (km) Brightness Sun altitude
Rises 19:15:50 0° 290° (WNW) 2,380 1.3 -20.9°
Reaches altitude 10° 19:17:58 10° 294° (WNW) 1,512 0.0 -21.3°
Enters shadow 19:20:43 49° 327° (NNW) 553 -3.1 -21.7°
